Location: Unspecified
(58.9933°N, 5.6375°E)
Time: 19:13:08
(UTC+01:00)

Resurs 1-4 Rocket - Visible Passes

Search period start: 20 January 2017 00:00
Search period end: 30 January 2017 00:00
Orbit: 800 x 814 km, 98.5° (Epoch: 19 January)

Date Brightness Start Highest point End Pass type
(mag) Time Alt. Az. Time Alt. Az. Time Alt. Az.
20 Jan 4.5 03:55:09 10° NNE 03:56:10 16° NNE 03:56:10 16° NNE visible
20 Jan 4.0 05:35:37 10° N 05:37:14 17° NNW 05:37:14 17° NNW visible
21 Jan 4.7 03:30:33 10° NNE 03:31:23 15° NNE 03:31:23 15° NNE visible
21 Jan 4.0 05:10:50 10° N 05:12:27 18° N 05:12:27 18° N visible
21 Jan 4.1 06:52:23 10° NNW 06:53:33 11° NNW 06:53:33 11° NNW visible
22 Jan 4.8 03:06:02 10° NNE 03:06:36 13° NNE 03:06:36 13° NNE visible
22 Jan 4.1 04:46:07 10° N 04:47:41 19° N 04:47:41 19° N visible
22 Jan 4.1 06:27:06 10° N 06:28:46 13° NNW 06:28:46 13° NNW visible
23 Jan 5.0 02:41:34 10° NNE 02:41:49 11° NNE 02:41:49 11° NNE visible
23 Jan 4.2 04:21:25 10° NNE 04:22:53 19° N 04:22:53 19° N visible
23 Jan 4.0 06:02:07 10° N 06:03:59 16° NNW 06:03:59 16° NNW visible
24 Jan 4.3 03:56:47 10° NNE 03:58:06 18° NNE 03:58:06 18° NNE visible
24 Jan 3.9 05:37:16 10° N 05:39:12 18° NNW 05:39:12 18° NNW visible
25 Jan 4.5 03:32:11 10° NNE 03:33:20 17° NNE 03:33:20 17° NNE visible
25 Jan 3.9 05:12:29 10° N 05:14:24 20° N 05:14:24 20° N visible
25 Jan 4.1 06:54:06 10° NNW 06:55:21 11° NNW 06:55:30 11° NNW visible
26 Jan 4.7 03:07:39 10° NNE 03:08:32 15° NNE 03:08:32 15° NNE visible
26 Jan 3.9 04:47:45 10° N 04:49:38 21° N 04:49:38 21° N visible
26 Jan 4.0 06:28:45 10° N 06:30:43 13° NNW 06:30:43 13° NNW visible
27 Jan 4.9 02:43:12 10° NNE 02:43:47 13° NNE 02:43:47 13° NNE visible
27 Jan 4.0 04:23:03 10° NNE 04:24:52 21° N 04:24:52 21° N visible
27 Jan 3.9 06:03:46 10° N 06:05:57 16° NNW 06:05:57 16° NNW visible
28 Jan 5.1 02:18:51 10° NNE 02:19:00 11° NNE 02:19:00 11° NNE visible
28 Jan 4.2 03:58:25 10° NNE 04:00:05 21° NNE 04:00:05 21° NNE visible
28 Jan 3.8 05:38:55 10° N 05:41:10 19° NNW 05:41:10 19° NNW visible
29 Jan 4.3 03:33:49 10° NNE 03:35:19 19° NNE 03:35:19 19° NNE visible
29 Jan 3.8 05:14:08 10° N 05:16:24 21° NNW 05:16:24 21° NNW visible
29 Jan 4.1 06:55:49 10° NNW 06:56:57 11° NNW 06:57:29 11° NW visible
